• In Romania
  • List of Countries
  • For 7 days
  • Water Temperature
  • Satellite Maps
  • Weather Map
  • Weather Widgets
  • user-avatar
    Login

    Hourly Weather Mochalino

    Today, 24 September, Monday

    Time Temperature Precipitation Wind Pressure Humidity
    00:00 +7°C° 0 mm 2 mps 739 mmHg 93%
    01:00 +7°C° 0 mm 2 mps 739 mmHg 95%
    02:00 +6°C° 0 mm 2 mps 739 mmHg 96%
    03:00 +6°C° 0 mm 2 mps 738 mmHg 96%
    04:00 +6°C° 0 mm 2 mps 738 mmHg 96%
    05:00 +6°C° 0 mm 2 mps 738 mmHg 97%
    06:00 +7°C° 0.3 mm 2 mps 737 mmHg 96%
    07:00 +7°C° 0.3 mm 2 mps 737 mmHg 95%
    08:00 +8°C° 0.3 mm 2 mps 736 mmHg 94%
    09:00 +8°C° 1.4 mm 2 mps 736 mmHg 94%
    10:00 +8°C° 1.4 mm 3 mps 735 mmHg 94%
    11:00 +8°C° 1.4 mm 3 mps 735 mmHg 95%
    12:00 +8°C° 2.5 mm 3 mps 734 mmHg 95%
    13:00 +8°C° 2.5 mm 3 mps 733 mmHg 95%
    14:00 +8°C° 2.5 mm 3 mps 732 mmHg 95%
    15:00 +7°C° 2 mm 4 mps 732 mmHg 95%
    16:00 +6°C° 2 mm 4 mps 731 mmHg 95%
    17:00 +6°C° 2 mm 4 mps 730 mmHg 95%
    18:00 +6°C° 2.2 mm 5 mps 730 mmHg 94%
    19:00 +6°C° 2.2 mm 5 mps 730 mmHg 94%
    20:00 +5°C° 2.2 mm 6 mps 730 mmHg 93%
    21:00 +5°C° 1.1 mm 6 mps 731 mmHg 92%
    22:00 +5°C° 1.1 mm 6 mps 731 mmHg 91%
    23:00 +5°C° 1.1 mm 6 mps 732 mmHg 90%

    Tomorrow, 25 September, Tuesday

    Time Temperature Precipitation Wind Pressure Humidity
    00:00 +5°C° 0.4 mm 6 mps 733 mmHg 90%
    01:00 +5°C° 0.4 mm 6 mps 733 mmHg 90%
    02:00 +5°C° 0.4 mm 6 mps 734 mmHg 89%
    03:00 +4°C° 0.1 mm 6 mps 735 mmHg 90%
    04:00 +4°C° 0.1 mm 6 mps 736 mmHg 90%
    05:00 +3°C° 0.1 mm 5 mps 736 mmHg 90%
    06:00 +3°C° 0 mm 6 mps 737 mmHg 88%
    07:00 +3°C° 0 mm 6 mps 738 mmHg 87%
    08:00 +4°C° 0 mm 6 mps 739 mmHg 85%
    09:00 +4°C° 0 mm 6 mps 740 mmHg 82%
    10:00 +5°C° 0 mm 6 mps 740 mmHg 78%
    11:00 +5°C° 0 mm 6 mps 741 mmHg 75%
    12:00 +7°C° 0.1 mm 6 mps 742 mmHg 71%
    13:00 +7°C° 0.1 mm 6 mps 742 mmHg 67%
    14:00 +8°C° 0.1 mm 6 mps 743 mmHg 63%
    15:00 +7°C° 0.1 mm 5 mps 743 mmHg 65%
    16:00 +6°C° 0.1 mm 5 mps 744 mmHg 66%
    17:00 +6°C° 0.1 mm 4 mps 744 mmHg 68%
    18:00 +5°C° 0 mm 4 mps 745 mmHg 69%
    19:00 +4°C° 0 mm 4 mps 746 mmHg 70%
    20:00 +3°C° 0 mm 4 mps 747 mmHg 71%
    21:00 +3°C° 0 mm 4 mps 747 mmHg 72%
    22:00 +2°C° 0 mm 3 mps 748 mmHg 72%
    23:00 +2°C° 0 mm 3 mps 749 mmHg 72%

    Day after tomorrow, 26 September, Wednesday

    Time Temperature Precipitation Wind Pressure Humidity
    00:00 +2°C° 0 mm 3 mps 749 mmHg 74%
    01:00 +1°C° 0 mm 3 mps 750 mmHg 76%
    02:00 +1°C° 0 mm 3 mps 750 mmHg 79%
    03:00 +1°C° 0 mm 3 mps 751 mmHg 82%
    04:00 +1°C° 0 mm 3 mps 751 mmHg 86%
    05:00 +1°C° 0 mm 3 mps 751 mmHg 89%
    06:00 +2°C° 0 mm 3 mps 751 mmHg 86%
    07:00 +3°C° 0 mm 3 mps 751 mmHg 83%
    08:00 +3°C° 0 mm 3 mps 752 mmHg 81%
    09:00 +5°C° 0 mm 3 mps 751 mmHg 73%
    10:00 +7°C° 0 mm 4 mps 751 mmHg 65%
    11:00 +10°C° 0 mm 4 mps 751 mmHg 57%
    12:00 +10°C° 0 mm 4 mps 751 mmHg 55%
    13:00 +9°C° 0 mm 5 mps 750 mmHg 53%
    14:00 +10°C° 0 mm 5 mps 749 mmHg 51%
    15:00 +9°C° 0.1 mm 5 mps 749 mmHg 57%
    16:00 +8°C° 0.1 mm 5 mps 748 mmHg 62%
    17:00 +7°C° 0.1 mm 5 mps 747 mmHg 68%
    18:00 +5°C° 0.5 mm 6 mps 746 mmHg 73%
    19:00 +4°C° 0.5 mm 6 mps 746 mmHg 78%
    20:00 +4°C° 0.5 mm 7 mps 745 mmHg 83%
    21:00 +4°C° 1.6 mm 7 mps 743 mmHg 85%
    22:00 +4°C° 1.6 mm 7 mps 742 mmHg 87%
    23:00 +4°C° 1.6 mm 8 mps 741 mmHg 90%

    27 September, Thursday

    Time Temperature Precipitation Wind Pressure Humidity
    00:00 +4°C° 1 mm 7 mps 740 mmHg 90%
    01:00 +5°C° 1 mm 7 mps 739 mmHg 91%
    02:00 +5°C° 1 mm 7 mps 739 mmHg 91%
    03:00 +5°C° 0.8 mm 6 mps 738 mmHg 92%
    04:00 +7°C° 0.8 mm 5 mps 738 mmHg 93%
    05:00 +7°C° 0.8 mm 5 mps 738 mmHg 93%
    06:00 +7°C° 0.3 mm 5 mps 738 mmHg 93%
    07:00 +8°C° 0.3 mm 4 mps 738 mmHg 92%
    08:00 +8°C° 0.3 mm 4 mps 738 mmHg 91%
    09:00 +10°C° 0.2 mm 4 mps 738 mmHg 87%
    10:00 +10°C° 0.2 mm 5 mps 738 mmHg 82%
    11:00 +12°C° 0.2 mm 5 mps 738 mmHg 78%
    12:00 +12°C° 0.1 mm 5 mps 739 mmHg 71%
    13:00 +13°C° 0.1 mm 5 mps 739 mmHg 64%
    14:00 +13°C° 0.1 mm 5 mps 739 mmHg 58%
    15:00 +12°C° 0 mm 4 mps 739 mmHg 61%
    16:00 +11°C° 0 mm 3 mps 740 mmHg 65%
    17:00 +10°C° 0 mm 2 mps 740 mmHg 68%
    18:00 +9°C° 0 mm 2 mps 740 mmHg 73%
    19:00 +8°C° 0 mm 2 mps 740 mmHg 77%
    20:00 +7°C° 0 mm 2 mps 741 mmHg 82%
    21:00 +7°C° 0 mm 2 mps 740 mmHg 84%
    22:00 +6°C° 0 mm 2 mps 740 mmHg 87%
    23:00 +6°C° 0 mm 2 mps 740 mmHg 90%

    28 September, Friday

    Time Temperature Precipitation Wind Pressure Humidity
    00:00 +7°C° 0.1 mm 3 mps 739 mmHg 91%
    01:00 +7°C° 0.1 mm 4 mps 738 mmHg 92%
    02:00 +8°C° 0.1 mm 5 mps 737 mmHg 93%
    03:00 +9°C° 0.4 mm 6 mps 736 mmHg 91%
    04:00 +10°C° 0.4 mm 7 mps 734 mmHg 90%
    05:00 +12°C° 0.4 mm 8 mps 732 mmHg 89%
    06:00 +12°C° 1.5 mm 8 mps 732 mmHg 88%
    07:00 +11°C° 1.5 mm 8 mps 732 mmHg 88%
    08:00 +11°C° 1.5 mm 8 mps 731 mmHg 88%
    09:00 +10°C° 0.6 mm 8 mps 733 mmHg 85%
    10:00 +9°C° 0.6 mm 8 mps 734 mmHg 82%
    11:00 +8°C° 0.6 mm 7 mps 736 mmHg 80%
    12:00 +8°C° 0.1 mm 7 mps 737 mmHg 76%
    13:00 +8°C° 0.1 mm 6 mps 738 mmHg 72%
    14:00 +8°C° 0.1 mm 5 mps 740 mmHg 68%
    15:00 +8°C° 0 mm 4 mps 740 mmHg 70%
    16:00 +8°C° 0 mm 3 mps 741 mmHg 72%
    17:00 +8°C° 0 mm 2 mps 741 mmHg 74%
    18:00 +7°C° 0 mm 3 mps 742 mmHg 77%
    19:00 +7°C° 0 mm 3 mps 743 mmHg 81%
    20:00 +5°C° 0 mm 4 mps 744 mmHg 85%
    21:00 +4°C° 0 mm 3 mps 744 mmHg 86%
    22:00 +3°C° 0 mm 3 mps 745 mmHg 87%
    23:00 +3°C° 0 mm 2 mps 745 mmHg 88%

    29 September, Saturday

    Time Temperature Precipitation Wind Pressure Humidity
    00:00 +3°C° 0 mm 2 mps 746 mmHg 88%
    01:00 +2°C° 0 mm 3 mps 747 mmHg 88%
    02:00 +2°C° 0 mm 3 mps 747 mmHg 87%
    03:00 +1°C° 0 mm 3 mps 748 mmHg 88%
    04:00 +1°C° 0 mm 3 mps 748 mmHg 89%
    05:00 +1°C° 0 mm 3 mps 749 mmHg 90%
    06:00 +1°C° 0 mm 3 mps 749 mmHg 85%
    07:00 +2°C° 0 mm 3 mps 750 mmHg 81%
    08:00 +2°C° 0 mm 3 mps 751 mmHg 76%
    09:00 +4°C° 0 mm 4 mps 751 mmHg 68%
    10:00 +5°C° 0 mm 4 mps 752 mmHg 59%
    11:00 +6°C° 0 mm 4 mps 752 mmHg 51%
    12:00 +7°C° 0 mm 4 mps 752 mmHg 49%
    13:00 +7°C° 0 mm 4 mps 752 mmHg 47%
    14:00 +8°C° 0 mm 4 mps 753 mmHg 45%
    15:00 +8°C° 0 mm 3 mps 753 mmHg 52%
    16:00 +7°C° 0 mm 2 mps 753 mmHg 58%
    17:00 +7°C° 0 mm 1 mps 753 mmHg 65%
    18:00 +5°C° 0 mm 2 mps 753 mmHg 68%
    19:00 +4°C° 0 mm 2 mps 754 mmHg 72%
    20:00 +4°C° 0 mm 2 mps 754 mmHg 75%
    21:00 +3°C° 0 mm 2 mps 754 mmHg 77%
    22:00 +3°C° 0 mm 2 mps 754 mmHg 78%
    23:00 +3°C° 0 mm 2 mps 755 mmHg 80%
    Show more

    3.3.7123123